• In Uzbekistan
  • List of Countries
  • For 7 days
  • Water Temperature
  • Satellite Maps
  • Weather Map
  • Weather Widgets
  • user-avatar
    Login

    Hourly Weather Graz

    Today, 17 January, Wednesday

    Time Temperature Precipitation Wind Pressure Humidity
    00:00 +3°C° 0.2 mm 1 mps 711 mmHg 91%
    01:00 +2°C° 0 mm 1 mps 711 mmHg 90%
    02:00 +2°C° 0.1 mm 1 mps 710 mmHg 90%
    03:00 +2°C° 0.1 mm 1 mps 710 mmHg 91%
    04:00 +2°C° 0.1 mm 1 mps 709 mmHg 91%
    05:00 +2°C° 0.1 mm 1 mps 709 mmHg 92%
    06:00 +1°C° 0.1 mm 1 mps 708 mmHg 92%
    07:00 +1°C° 0.1 mm 1 mps 708 mmHg 93%
    08:00 +2°C° 0.3 mm 1 mps 708 mmHg 90%
    09:00 +3°C° 0.3 mm 1 mps 708 mmHg 88%
    10:00 +3°C° 0.3 mm 1 mps 708 mmHg 85%
    11:00 +3°C° 0.4 mm 2 mps 709 mmHg 79%
    12:00 +3°C° 0.4 mm 3 mps 709 mmHg 74%
    13:00 +3°C° 0.4 mm 4 mps 710 mmHg 68%
    14:00 +1°C° 0.1 mm 4 mps 710 mmHg 68%
    15:00 0°C° 0.1 mm 4 mps 711 mmHg 67%
    16:00 0°C° 0.1 mm 4 mps 712 mmHg 67%
    17:00 0°C° 0.1 mm 3 mps 713 mmHg 70%
    18:00 -1°C° 0.1 mm 3 mps 713 mmHg 73%
    19:00 -2°C° 0.1 mm 3 mps 714 mmHg 76%
    20:00 -2°C° 0.2 mm 3 mps 715 mmHg 77%
    21:00 -2°C° 0.2 mm 3 mps 716 mmHg 78%
    22:00 -2°C° 0.2 mm 2 mps 716 mmHg 79%
    23:00 -2°C° 0.4 mm 2 mps 717 mmHg 79%

    Tomorrow, 18 January, Thursday

    Time Temperature Precipitation Wind Pressure Humidity
    00:00 -2°C° 0.4 mm 2 mps 717 mmHg 80%
    01:00 -2°C° 0.4 mm 3 mps 718 mmHg 80%
    02:00 -2°C° 0.3 mm 2 mps 718 mmHg 81%
    03:00 -2°C° 0.3 mm 2 mps 719 mmHg 81%
    04:00 -2°C° 0.3 mm 2 mps 719 mmHg 82%
    05:00 -2°C° 0.1 mm 2 mps 720 mmHg 82%
    06:00 -2°C° 0.1 mm 2 mps 720 mmHg 82%
    07:00 0°C° 0.1 mm 1 mps 720 mmHg 82%
    08:00 +1°C° 0.1 mm 1 mps 720 mmHg 79%
    09:00 +2°C° 0.1 mm 1 mps 720 mmHg 75%
    10:00 +3°C° 0.1 mm 1 mps 720 mmHg 72%
    11:00 +2°C° 0.1 mm 2 mps 720 mmHg 70%
    12:00 +3°C° 0.1 mm 2 mps 719 mmHg 69%
    13:00 +4°C° 0.1 mm 2 mps 719 mmHg 68%
    14:00 +3°C° 0 mm 2 mps 718 mmHg 70%
    15:00 +3°C° 0 mm 2 mps 717 mmHg 72%
    16:00 +3°C° 0 mm 2 mps 716 mmHg 75%
    17:00 +2°C° 0 mm 2 mps 716 mmHg 76%
    18:00 +2°C° 0 mm 2 mps 716 mmHg 78%
    19:00 +2°C° 0 mm 2 mps 715 mmHg 79%
    20:00 +1°C° 0 mm 2 mps 715 mmHg 79%
    21:00 0°C° 0 mm 3 mps 715 mmHg 80%
    22:00 0°C° 0 mm 3 mps 714 mmHg 80%
    23:00 0°C° 0 mm 3 mps 714 mmHg 80%

    Day after tomorrow, 19 January, Friday

    Time Temperature Precipitation Wind Pressure Humidity
    00:00 0°C° 0 mm 3 mps 714 mmHg 81%
    01:00 +1°C° 0 mm 3 mps 714 mmHg 81%
    02:00 +1°C° 0.3 mm 3 mps 714 mmHg 84%
    03:00 +2°C° 0.3 mm 2 mps 714 mmHg 87%
    04:00 +3°C° 0.3 mm 1 mps 714 mmHg 89%
    05:00 +3°C° 0.2 mm 1 mps 715 mmHg 89%
    06:00 +3°C° 0.2 mm 1 mps 715 mmHg 90%
    07:00 +2°C° 0.2 mm 1 mps 716 mmHg 90%
    08:00 +3°C° 0.2 mm 1 mps 717 mmHg 88%
    09:00 +4°C° 0.2 mm 1 mps 717 mmHg 86%
    10:00 +4°C° 0.2 mm 1 mps 718 mmHg 85%
    11:00 +4°C° 0.5 mm 1 mps 718 mmHg 84%
    12:00 +5°C° 0.5 mm 1 mps 718 mmHg 83%
    13:00 +5°C° 0.5 mm 1 mps 718 mmHg 82%
    14:00 +4°C° 0.3 mm 1 mps 718 mmHg 84%
    15:00 +4°C° 0.3 mm 1 mps 718 mmHg 85%
    16:00 +2°C° 0.3 mm 0 mps 718 mmHg 87%
    17:00 +2°C° 0.2 mm 0 mps 719 mmHg 88%
    18:00 +1°C° 0.2 mm 0 mps 719 mmHg 90%
    19:00 +1°C° 0.2 mm 0 mps 720 mmHg 91%
    20:00 +1°C° 0.3 mm 0 mps 720 mmHg 92%
    21:00 +1°C° 0.3 mm 0 mps 720 mmHg 93%
    22:00 0°C° 0.3 mm 0 mps 720 mmHg 94%
    23:00 +1°C° 0.2 mm 1 mps 720 mmHg 95%

    20 January, Saturday

    Time Temperature Precipitation Wind Pressure Humidity
    00:00 +1°C° 0.2 mm 1 mps 720 mmHg 95%
    01:00 +1°C° 0.2 mm 1 mps 720 mmHg 95%
    02:00 +1°C° 0.1 mm 1 mps 720 mmHg 95%
    03:00 0°C° 0.1 mm 1 mps 719 mmHg 94%
    04:00 0°C° 0.1 mm 1 mps 719 mmHg 94%
    05:00 0°C° 0 mm 1 mps 719 mmHg 94%
    06:00 -1°C° 0 mm 1 mps 719 mmHg 93%
    07:00 -1°C° 0 mm 1 mps 719 mmHg 93%
    08:00 0°C° 0.2 mm 1 mps 719 mmHg 91%
    09:00 0°C° 0.2 mm 1 mps 719 mmHg 88%
    10:00 +1°C° 0.2 mm 1 mps 719 mmHg 85%
    11:00 +2°C° 0.1 mm 1 mps 719 mmHg 81%
    12:00 +3°C° 0.1 mm 1 mps 719 mmHg 77%
    13:00 +4°C° 0.1 mm 1 mps 719 mmHg 73%
    14:00 +3°C° 0.1 mm 1 mps 719 mmHg 75%
    15:00 +2°C° 0.1 mm 1 mps 719 mmHg 77%
    16:00 +1°C° 0.1 mm 0 mps 719 mmHg 79%
    17:00 +1°C° 0.1 mm 1 mps 719 mmHg 81%
    18:00 0°C° 0.1 mm 1 mps 719 mmHg 82%
    19:00 -2°C° 0.1 mm 1 mps 719 mmHg 84%
    20:00 -2°C° 0 mm 1 mps 720 mmHg 83%
    21:00 -2°C° 0 mm 1 mps 720 mmHg 83%
    22:00 -3°C° 0 mm 1 mps 720 mmHg 83%
    23:00 -3°C° 0 mm 1 mps 721 mmHg 83%

    21 January, Sunday

    Time Temperature Precipitation Wind Pressure Humidity
    00:00 -3°C° 0 mm 1 mps 721 mmHg 83%
    01:00 -3°C° 0 mm 1 mps 721 mmHg 83%
    02:00 -3°C° 0 mm 1 mps 721 mmHg 83%
    03:00 -3°C° 0 mm 1 mps 722 mmHg 83%
    04:00 -4°C° 0 mm 1 mps 722 mmHg 83%
    05:00 -4°C° 0 mm 1 mps 722 mmHg 83%
    06:00 -4°C° 0 mm 1 mps 723 mmHg 83%
    07:00 -4°C° 0 mm 1 mps 723 mmHg 83%
    08:00 -3°C° 0 mm 1 mps 724 mmHg 80%
    09:00 -2°C° 0 mm 1 mps 724 mmHg 76%
    10:00 0°C° 0 mm 1 mps 725 mmHg 73%
    11:00 -1°C° 0 mm 2 mps 725 mmHg 69%
    12:00 +1°C° 0 mm 2 mps 725 mmHg 65%
    13:00 +2°C° 0 mm 2 mps 725 mmHg 61%
    14:00 +1°C° 0 mm 2 mps 726 mmHg 65%
    15:00 +1°C° 0 mm 1 mps 726 mmHg 68%
    16:00 +1°C° 0 mm 1 mps 726 mmHg 72%
    17:00 0°C° 0 mm 1 mps 726 mmHg 75%
    18:00 -2°C° 0 mm 1 mps 726 mmHg 77%
    19:00 -3°C° 0 mm 1 mps 727 mmHg 80%
    20:00 -3°C° 0 mm 1 mps 727 mmHg 80%
    21:00 -3°C° 0 mm 1 mps 727 mmHg 80%
    22:00 -4°C° 0 mm 1 mps 727 mmHg 81%
    23:00 -3°C° 0 mm 1 mps 727 mmHg 80%

    22 January, Monday

    Time Temperature Precipitation Wind Pressure Humidity
    00:00 -3°C° 0 mm 1 mps 727 mmHg 80%
    01:00 -2°C° 0 mm 1 mps 726 mmHg 80%
    02:00 -2°C° 0.1 mm 1 mps 726 mmHg 80%
    03:00 -2°C° 0.1 mm 1 mps 726 mmHg 81%
    04:00 -2°C° 0.1 mm 1 mps 726 mmHg 82%
    05:00 -2°C° 0 mm 1 mps 725 mmHg 83%
    06:00 -2°C° 0 mm 1 mps 725 mmHg 84%
    07:00 -2°C° 0 mm 1 mps 725 mmHg 85%
    08:00 -1°C° 0 mm 1 mps 725 mmHg 82%
    09:00 0°C° 0 mm 1 mps 725 mmHg 80%
    10:00 +1°C° 0 mm 1 mps 724 mmHg 78%
    11:00 +1°C° 0.2 mm 1 mps 724 mmHg 77%
    12:00 +2°C° 0.2 mm 1 mps 724 mmHg 77%
    13:00 +3°C° 0.2 mm 1 mps 724 mmHg 76%
    14:00 +2°C° 0.2 mm 1 mps 724 mmHg 79%
    15:00 +2°C° 0.2 mm 1 mps 724 mmHg 82%
    16:00 +2°C° 0.2 mm 1 mps 724 mmHg 85%
    17:00 +2°C° 0.2 mm 1 mps 724 mmHg 86%
    18:00 +1°C° 0.2 mm 1 mps 724 mmHg 87%
    19:00 +1°C° 0.2 mm 1 mps 724 mmHg 89%
    20:00 +1°C° 0.2 mm 1 mps 724 mmHg 89%
    21:00 0°C° 0.2 mm 0 mps 725 mmHg 89%
    22:00 +1°C° 0.2 mm 0 mps 725 mmHg 90%
    23:00 +1°C° 0.1 mm 0 mps 725 mmHg 90%
    Show more